Погода в Чарлстоне

США     38°20′51″N   81°37′42″W
темп.,
°C
ветер,
м/с
пор.,
м/с
влажн.,
%
обл.,
%
осадки,
мм/ч
давл.,
гПа
погр.,
м
20 апреля, вт
вт2023:00+8ююз22760 0.0 101536
02:00+7ююз27845 0.0 1016156
05:00+6юз11925 0.0 101615
08:00+8ююз148320 0.0 1017148
11:00+15зюз25576 0.0 10171129
14:00+19зюз483963 0.1 10142638
17:00+20зюз3838100 0.0 10112522
20:00+14юз226457 0.0 101011
21 апреля, ср
ср2123:00+12юз2570100 0.0 1010120
02:00+11ю2107580 0.0 1008267
05:00+13зюз6146490 0.0 10061267
08:00+2зсз5997100 2.4 1015870
11:00+3зсз4889100 0.4 1018873
14:00+5зсз5878100 1.1 10181379
17:00+6сз5105398 0.5 10182008
20:00+4сз385457 0.6 1020340
22 апреля, чт
чт2223:000з247651 0.0 102188
02:00−1зюз29915 0.0 1021256
05:00−1юз28989 0.0 1021238
08:00+1юз38835 0.0 1023304
11:00+8з4745100 0.0 10222097
14:00+8з475486 0.2 10221621
17:00+7з466981 0.8 10221231
20:00+4з26775 0.8 1023151
23 апреля, пт
пт2323:00+1юз22945 0.0 102434
02:000юз22965 0.0 102526
05:00−1ююз24971 0.0 102687
08:00+2юз258567 0.0 1026183
11:00+10з2346100 0.0 10251191
14:00+13з233768 0.0 10221562
17:00+14зюз2336100 0.0 10201589
20:00+8ссв11615 0.0 102010
24 апреля, сб
сб2423:00+5юв21685 0.0 102111
02:00+4ююв217156 0.0 102013
05:00+4вюв1171100 0.0 102010
08:00+6юв1365100 0.0 101982
11:00+14юв2347100 0.0 1017485
14:00+20ю1341100 0.0 10131450
17:00+15ююз1271100 0.1 101234
20:00+11юв1197100 1.3 101135